datetime,flow
1962-10-01,50.0
1962-10-02,50.0
1962-10-03,50.0
1962-10-04,50.0
1962-10-05,50.0
1962-10-06,50.0
1962-10-07,50.0
1962-10-08,50.0
1962-10-09,50.0
1962-10-10,50.0
1962-10-11,50.0
1962-10-12,50.0
1962-10-13,50.0
1962-10-14,50.0
1962-10-15,50.0
1962-10-16,75.0
1962-10-17,75.0
1962-10-18,75.0
1962-10-19,75.0
1962-10-20,75.0
1962-10-21,75.0
1962-10-22,75.0
1962-10-23,75.0
1962-10-24,75.0
1962-10-25,75.0
1962-10-26,75.0
1962-10-27,75.0
1962-10-28,75.0
1962-10-29,75.0
1962-10-30,75.0
1962-10-31,75.0
1962-11-01,45.0
1962-11-02,45.0
1962-11-03,45.0
1962-11-04,45.0
1962-11-05,45.0
1962-11-06,45.0
1962-11-07,45.0
1962-11-08,45.0
1962-11-09,45.0
1962-11-10,45.0
1962-11-11,45.0
1962-11-12,45.0
1962-11-13,45.0
1962-11-14,45.0
1962-11-15,45.0
1962-11-16,45.0
1962-11-17,45.0
1962-11-18,45.0
1962-11-19,45.0
1962-11-20,45.0
1962-11-21,45.0
1962-11-22,38.0
1962-11-23,37.0
1962-11-24,38.0
1962-11-25,37.0
1962-11-26,36.0
1962-11-27,36.0
1962-11-28,34.0
1962-11-29,34.0
1962-11-30,35.0
1962-12-01,35.0
1962-12-02,33.0
1962-12-03,34.0
1962-12-04,33.0
1962-12-05,31.0
1962-12-06,30.0
1962-12-07,29.0
1962-12-08,29.0
1962-12-09,27.0
1962-12-10,27.0
1962-12-11,24.0
1962-12-12,26.0
1962-12-13,26.0
1962-12-14,24.0
1962-12-15,26.0
1962-12-16,26.0
1962-12-17,24.0
1962-12-18,24.0
1962-12-19,25.0
1962-12-20,22.0
1962-12-21,20.0
1962-12-22,22.0
1962-12-23,22.0
1962-12-24,20.0
1962-12-25,18.0
1962-12-26,15.0
1962-12-27,16.0
1962-12-28,17.0
1962-12-29,18.0
1962-12-30,19.0
1962-12-31,20.0
1963-01-01,20.0
1963-01-02,20.0
1963-01-03,22.0
1963-01-04,24.0
1963-01-05,24.0
1963-01-06,24.0
1963-01-07,23.0
1963-01-08,24.0
1963-01-09,24.0
1963-01-10,23.0
1963-01-11,22.0
1963-01-12,20.0
1963-01-13,20.0
1963-01-14,20.0
1963-01-15,20.0
1963-01-16,20.0
1963-01-17,20.0
1963-01-18,20.0
1963-01-19,20.0
1963-01-20,20.0
1963-01-21,20.0
1963-01-22,20.0
1963-01-23,20.0
1963-01-24,20.0
1963-01-25,20.0
1963-01-26,20.0
1963-01-27,20.0
1963-01-28,20.0
1963-01-29,20.0
1963-01-30,20.0
1963-01-31,20.0
1963-02-01,18.0
1963-02-02,18.0
1963-02-03,22.0
1963-02-04,24.0
1963-02-05,24.0
1963-02-06,23.0
1963-02-07,24.0
1963-02-08,24.0
1963-02-09,24.0
1963-02-10,24.0
1963-02-11,23.0
1963-02-12,22.0
1963-02-13,22.0
1963-02-14,20.0
1963-02-15,20.0
1963-02-16,18.0
1963-02-17,16.0
1963-02-18,16.0
1963-02-19,19.0
1963-02-20,18.0
1963-02-21,18.0
1963-02-22,17.0
1963-02-23,17.0
1963-02-24,18.0
1963-02-25,18.0
1963-02-26,18.0
1963-02-27,17.0
1963-02-28,17.0
1963-03-01,16.0
1963-03-02,17.0
1963-03-03,17.0
1963-03-04,17.0
1963-03-05,17.0
1963-03-06,19.0
1963-03-07,17.0
1963-03-08,19.0
1963-03-09,18.0
1963-03-10,20.0
1963-03-11,19.0
1963-03-12,19.0
1963-03-13,18.0
1963-03-14,18.0
1963-03-15,19.0
1963-03-16,18.0
1963-03-17,19.0
1963-03-18,19.0
1963-03-19,18.0
1963-03-20,20.0
1963-03-21,23.0
1963-03-22,31.0
1963-03-23,38.0
1963-03-24,46.0
1963-03-25,57.0
1963-03-26,74.0
1963-03-27,104.0
1963-03-28,115.0
1963-03-29,106.0
1963-03-30,113.0
1963-03-31,131.0
1963-04-01,145.0
1963-04-02,117.0
1963-04-03,90.0
1963-04-04,91.0
1963-04-05,90.0
1963-04-06,91.0
1963-04-07,113.0
1963-04-08,148.0
1963-04-09,148.0
1963-04-10,128.0
1963-04-11,120.0
1963-04-12,156.0
1963-04-13,228.0
1963-04-14,300.0
1963-04-15,285.0
1963-04-16,208.0
1963-04-17,152.0
1963-04-18,123.0
1963-04-19,106.0
1963-04-20,95.0
1963-04-21,86.0
1963-04-22,77.0
1963-04-23,88.0
1963-04-24,120.0
1963-04-25,156.0
1963-04-26,142.0
1963-04-27,125.0
1963-04-28,110.0
1963-04-29,106.0
1963-04-30,108.0
1963-05-01,123.0
1963-05-02,131.0
1963-05-03,196.0
1963-05-04,334.0
1963-05-05,472.0
1963-05-06,641.0
1963-05-07,754.0
1963-05-08,786.0
1963-05-09,641.0
1963-05-10,478.0
1963-05-11,460.0
1963-05-12,436.0
1963-05-13,496.0
1963-05-14,430.0
1963-05-15,430.0
1963-05-16,585.0
1963-05-17,634.0
1963-05-18,592.0
1963-05-19,578.0
1963-05-20,557.0
1963-05-21,502.0
1963-05-22,472.0
1963-05-23,418.0
1963-05-24,370.0
1963-05-25,340.0
1963-05-26,340.0
1963-05-27,406.0
1963-05-28,412.0
1963-05-29,388.0
1963-05-30,382.0
1963-05-31,358.0
1963-06-01,340.0
1963-06-02,290.0
1963-06-03,224.0
1963-06-04,212.0
1963-06-05,224.0
1963-06-06,212.0
1963-06-07,196.0
1963-06-08,208.0
1963-06-09,188.0
1963-06-10,152.0
1963-06-11,134.0
1963-06-12,156.0
1963-06-13,220.0
1963-06-14,270.0
1963-06-15,248.0
1963-06-16,212.0
1963-06-17,159.0
1963-06-18,166.0
1963-06-19,166.0
1963-06-20,173.0
1963-06-21,184.0
1963-06-22,180.0
1963-06-23,166.0
1963-06-24,152.0
1963-06-25,139.0
1963-06-26,134.0
1963-06-27,125.0
1963-06-28,117.0
1963-06-29,110.0
1963-06-30,99.0
1963-07-01,97.0
1963-07-02,97.0
1963-07-03,102.0
1963-07-04,131.0
1963-07-05,113.0
1963-07-06,97.0
1963-07-07,88.0
1963-07-08,115.0
1963-07-09,137.0
1963-07-10,176.0
1963-07-11,139.0
1963-07-12,134.0
1963-07-13,117.0
1963-07-14,99.0
1963-07-15,88.0
1963-07-16,79.0
1963-07-17,74.0
1963-07-18,68.0
1963-07-19,62.0
1963-07-20,58.0
1963-07-21,62.0
1963-07-22,91.0
1963-07-23,77.0
1963-07-24,68.0
1963-07-25,61.0
1963-07-26,56.0
1963-07-27,52.0
1963-07-28,47.0
1963-07-29,43.0
1963-07-30,39.0
1963-07-31,36.0
1963-08-01,34.0
1963-08-02,43.0
1963-08-03,55.0
1963-08-04,107.0
1963-08-05,110.0
1963-08-06,104.0
1963-08-07,128.0
1963-08-08,99.0
1963-08-09,88.0
1963-08-10,81.0
1963-08-11,106.0
1963-08-12,104.0
1963-08-13,95.0
1963-08-14,81.0
1963-08-15,79.0
1963-08-16,81.0
1963-08-17,86.0
1963-08-18,82.0
1963-08-19,77.0
1963-08-20,86.0
1963-08-21,84.0
1963-08-22,90.0
1963-08-23,108.0
1963-08-24,115.0
1963-08-25,108.0
1963-08-26,139.0
1963-08-27,346.0
1963-08-28,208.0
1963-08-29,152.0
1963-08-30,145.0
1963-08-31,188.0
1963-09-01,204.0
1963-09-02,152.0
1963-09-03,128.0
1963-09-04,108.0
1963-09-05,117.0
1963-09-06,152.0
1963-09-07,142.0
1963-09-08,128.0
1963-09-09,106.0
1963-09-10,97.0
1963-09-11,95.0
1963-09-12,86.0
1963-09-13,81.0
1963-09-14,113.0
1963-09-15,99.0
1963-09-16,90.0
1963-09-17,82.0
1963-09-18,90.0
1963-09-19,86.0
1963-09-20,95.0
1963-09-21,156.0
1963-09-22,123.0
1963-09-23,108.0
1963-09-24,95.0
1963-09-25,88.0
1963-09-26,81.0
1963-09-27,74.0
1963-09-28,68.0
1963-09-29,62.0
1963-09-30,58.0
1963-10-01,55.0
1963-10-02,51.0
1963-10-03,48.0
1963-10-04,46.0
1963-10-05,43.0
1963-10-06,41.0
1963-10-07,38.0
1963-10-08,37.0
1963-10-09,36.0
1963-10-10,34.0
1963-10-11,34.0
1963-10-12,32.0
1963-10-13,31.0
1963-10-14,31.0
1963-10-15,30.0
1963-10-16,29.0
1963-10-17,29.0
1963-10-18,29.0
1963-10-19,38.0
1963-10-20,47.0
1963-10-21,44.0
1963-10-22,42.0
1963-10-23,39.0
1963-10-24,38.0
1963-10-25,37.0
1963-10-26,36.0
1963-10-27,35.0
1963-10-28,34.0
1963-10-29,33.0
1963-10-30,32.0
1963-10-31,34.0
1963-11-01,29.0
1963-11-02,30.0
1963-11-03,31.0
1963-11-04,32.0
1963-11-05,32.0
1963-11-06,31.0
1963-11-07,32.0
1963-11-08,31.0
1963-11-09,31.0
1963-11-10,30.0
1963-11-11,29.0
1963-11-12,27.0
1963-11-13,27.0
1963-11-14,27.0
1963-11-15,27.0
1963-11-16,28.0
1963-11-17,22.0
1963-11-18,24.0
1963-11-19,25.0
1963-11-20,24.0
1963-11-21,26.0
1963-11-22,26.0
1963-11-23,24.0
1963-11-24,26.0
1963-11-25,27.0
1963-11-26,23.0
1963-11-27,24.0
1963-11-28,25.0
1963-11-29,22.0
1963-11-30,24.0
1963-12-01,24.0
1963-12-02,22.0
1963-12-03,22.0
1963-12-04,22.0
1963-12-05,21.0
1963-12-06,20.0
1963-12-07,19.0
1963-12-08,14.0
1963-12-09,20.0
1963-12-10,20.0
1963-12-11,19.0
1963-12-12,17.0
1963-12-13,16.0
1963-12-14,17.0
1963-12-15,16.0
1963-12-16,19.0
1963-12-17,20.0
1963-12-18,20.0
1963-12-19,20.0
1963-12-20,19.0
1963-12-21,19.0
1963-12-22,17.0
1963-12-23,17.0
1963-12-24,17.0
1963-12-25,18.0
1963-12-26,17.0
1963-12-27,17.0
1963-12-28,17.0
1963-12-29,17.0
1963-12-30,17.0
1963-12-31,17.0
1964-01-01,17.0
1964-01-02,17.0
1964-01-03,17.0
1964-01-04,15.0
1964-01-05,16.0
1964-01-06,14.0
1964-01-07,13.0
1964-01-08,14.0
1964-01-09,13.0
1964-01-10,15.0
1964-01-11,15.0
1964-01-12,13.0
1964-01-13,12.0
1964-01-14,12.0
1964-01-15,13.0
1964-01-16,14.0
1964-01-17,13.0
1964-01-18,12.0
1964-01-19,12.0
1964-01-20,13.0
1964-01-21,13.0
1964-01-22,13.0
1964-01-23,13.0
1964-01-24,11.0
1964-01-25,11.0
1964-01-26,12.0
1964-01-27,12.0
1964-01-28,12.0
1964-01-29,12.0
1964-01-30,13.0
1964-01-31,12.0
1964-02-01,12.0
1964-02-02,12.0
1964-02-03,12.0
1964-02-04,12.0
1964-02-05,12.0
1964-02-06,12.0
1964-02-07,11.0
1964-02-08,12.0
1964-02-09,12.0
1964-02-10,12.0
1964-02-11,12.0
1964-02-12,11.0
1964-02-13,12.0
1964-02-14,12.0
1964-02-15,11.0
1964-02-16,12.0
1964-02-17,11.0
1964-02-18,12.0
1964-02-19,12.0
1964-02-20,12.0
1964-02-21,12.0
1964-02-22,12.0
1964-02-23,11.0
1964-02-24,11.0
1964-02-25,12.0
1964-02-26,11.0
1964-02-27,11.0
1964-02-28,12.0
1964-02-29,11.0
1964-03-01,11.0
1964-03-02,12.0
1964-03-03,12.0
1964-03-04,11.0
1964-03-05,11.0
1964-03-06,12.0
1964-03-07,12.0
1964-03-08,12.0
1964-03-09,12.0
1964-03-10,12.0
1964-03-11,12.0
1964-03-12,12.0
1964-03-13,12.0
1964-03-14,12.0
1964-03-15,13.0
1964-03-16,12.0
1964-03-17,12.0
1964-03-18,14.0
1964-03-19,15.0
1964-03-20,14.0
1964-03-21,15.0
1964-03-22,13.0
1964-03-23,12.0
1964-03-24,12.0
1964-03-25,13.0
1964-03-26,16.0
1964-03-27,15.0
1964-03-28,15.0
1964-03-29,16.0
1964-03-30,18.0
1964-03-31,19.0
1964-04-01,20.0
1964-04-02,18.0
1964-04-03,17.0
1964-04-04,16.0
1964-04-05,16.0
1964-04-06,16.0
1964-04-07,16.0
1964-04-08,15.0
1964-04-09,16.0
1964-04-10,18.0
1964-04-11,18.0
1964-04-12,22.0
1964-04-13,21.0
1964-04-14,25.0
1964-04-15,38.0
1964-04-16,60.0
1964-04-17,68.0
1964-04-18,55.0
1964-04-19,48.0
1964-04-20,44.0
1964-04-21,41.0
1964-04-22,50.0
1964-04-23,72.0
1964-04-24,82.0
1964-04-25,71.0
1964-04-26,57.0
1964-04-27,56.0
1964-04-28,60.0
1964-04-29,82.0
1964-04-30,72.0
1964-05-01,82.0
1964-05-02,95.0
1964-05-03,81.0
1964-05-04,79.0
1964-05-05,76.0
1964-05-06,71.0
1964-05-07,65.0
1964-05-08,60.0
1964-05-09,58.0
1964-05-10,77.0
1964-05-11,120.0
1964-05-12,166.0
1964-05-13,275.0
1964-05-14,340.0
1964-05-15,454.0
1964-05-16,592.0
1964-05-17,676.0
1964-05-18,648.0
1964-05-19,669.0
1964-05-20,810.0
1964-05-21,770.0
1964-05-22,786.0
1964-05-23,794.0
1964-05-24,802.0
1964-05-25,746.0
1964-05-26,746.0
1964-05-27,557.0
1964-05-28,436.0
1964-05-29,346.0
1964-05-30,240.0
1964-05-31,196.0
1964-06-01,176.0
1964-06-02,196.0
1964-06-03,200.0
1964-06-04,240.0
1964-06-05,328.0
1964-06-06,358.0
1964-06-07,442.0
1964-06-08,352.0
1964-06-09,275.0
1964-06-10,370.0
1964-06-11,388.0
1964-06-12,412.0
1964-06-13,340.0
1964-06-14,328.0
1964-06-15,376.0
1964-06-16,346.0
1964-06-17,265.0
1964-06-18,212.0
1964-06-19,220.0
1964-06-20,224.0
1964-06-21,220.0
1964-06-22,196.0
1964-06-23,184.0
1964-06-24,184.0
1964-06-25,166.0
1964-06-26,148.0
1964-06-27,145.0
1964-06-28,139.0
1964-06-29,137.0
1964-06-30,134.0
1964-07-01,128.0
1964-07-02,123.0
1964-07-03,113.0
1964-07-04,110.0
1964-07-05,104.0
1964-07-06,95.0
1964-07-07,93.0
1964-07-08,95.0
1964-07-09,102.0
1964-07-10,120.0
1964-07-11,224.0
1964-07-12,204.0
1964-07-13,212.0
1964-07-14,204.0
1964-07-15,180.0
1964-07-16,184.0
1964-07-17,192.0
1964-07-18,173.0
1964-07-19,137.0
1964-07-20,115.0
1964-07-21,102.0
1964-07-22,99.0
1964-07-23,91.0
1964-07-24,93.0
1964-07-25,113.0
1964-07-26,99.0
1964-07-27,91.0
1964-07-28,84.0
1964-07-29,99.0
1964-07-30,113.0
1964-07-31,134.0
1964-08-01,240.0
1964-08-02,240.0
1964-08-03,200.0
1964-08-04,176.0
1964-08-05,156.0
1964-08-06,137.0
1964-08-07,123.0
1964-08-08,110.0
1964-08-09,137.0
1964-08-10,113.0
1964-08-11,110.0
1964-08-12,170.0
1964-08-13,328.0
1964-08-14,224.0
1964-08-15,173.0
1964-08-16,139.0
1964-08-17,125.0
1964-08-18,104.0
1964-08-19,93.0
1964-08-20,106.0
1964-08-21,91.0
1964-08-22,77.0
1964-08-23,70.0
1964-08-24,64.0
1964-08-25,58.0
1964-08-26,57.0
1964-08-27,66.0
1964-08-28,60.0
1964-08-29,55.0
1964-08-30,51.0
1964-08-31,47.0
1964-09-01,55.0
1964-09-02,61.0
1964-09-03,50.0
1964-09-04,45.0
1964-09-05,47.0
1964-09-06,47.0
1964-09-07,64.0
1964-09-08,51.0
1964-09-09,65.0
1964-09-10,82.0
1964-09-11,64.0
1964-09-12,56.0
1964-09-13,52.0
1964-09-14,84.0
1964-09-15,137.0
1964-09-16,125.0
1964-09-17,108.0
1964-09-18,97.0
1964-09-19,90.0
1964-09-20,90.0
1964-09-21,90.0
1964-09-22,104.0
1964-09-23,131.0
1964-09-24,123.0
1964-09-25,125.0
1964-09-26,131.0
1964-09-27,123.0
1964-09-28,115.0
1964-09-29,113.0
1964-09-30,97.0
1964-10-01,90.0
1964-10-02,81.0
1964-10-03,74.0
1964-10-04,66.0
1964-10-05,62.0
1964-10-06,57.0
1964-10-07,55.0
1964-10-08,50.0
1964-10-09,47.0
1964-10-10,46.0
1964-10-11,43.0
1964-10-12,40.0
1964-10-13,38.0
1964-10-14,37.0
1964-10-15,36.0
1964-10-16,34.0
1964-10-17,34.0
1964-10-18,33.0
1964-10-19,31.0
1964-10-20,30.0
1964-10-21,29.0
1964-10-22,28.0
1964-10-23,28.0
1964-10-24,25.0
1964-10-25,23.0
1964-10-26,24.0
1964-10-27,25.0
1964-10-28,24.0
1964-10-29,24.0
1964-10-30,23.0
1964-10-31,23.0
1964-11-01,23.0
1964-11-02,22.0
1964-11-03,22.0
1964-11-04,19.0
1964-11-05,20.0
1964-11-06,20.0
1964-11-07,20.0
1964-11-08,20.0
1964-11-09,20.0
1964-11-10,20.0
1964-11-11,19.0
1964-11-12,19.0
1964-11-13,20.0
1964-11-14,19.0
1964-11-15,19.0
1964-11-16,22.0
1964-11-17,23.0
1964-11-18,28.0
1964-11-19,27.0
1964-11-20,27.0
1964-11-21,27.0
1964-11-22,27.0
1964-11-23,27.0
1964-11-24,24.0
1964-11-25,27.0
1964-11-26,24.0
1964-11-27,25.0
1964-11-28,24.0
1964-11-29,24.0
1964-11-30,22.0
1964-12-01,24.0
1964-12-02,24.0
1964-12-03,23.0
1964-12-04,19.0
1964-12-05,17.0
1964-12-06,20.0
1964-12-07,20.0
1964-12-08,22.0
1964-12-09,24.0
1964-12-10,21.0
1964-12-11,21.0
1964-12-12,22.0
1964-12-13,18.0
1964-12-14,21.0
1964-12-15,22.0
1964-12-16,20.0
1964-12-17,19.0
1964-12-18,19.0
1964-12-19,19.0
1964-12-20,19.0
1964-12-21,18.0
1964-12-22,18.0
1964-12-23,17.0
1964-12-24,18.0
1964-12-25,17.0
1964-12-26,20.0
1964-12-27,20.0
1964-12-28,15.0
1964-12-29,19.0
1964-12-30,21.0
1964-12-31,24.0
1965-01-01,24.0
1965-01-02,22.0
1965-01-03,23.0
1965-01-04,24.0
1965-01-05,22.0
1965-01-06,20.0
1965-01-07,20.0
1965-01-08,22.0
1965-01-09,22.0
1965-01-10,22.0
1965-01-11,22.0
1965-01-12,21.0
1965-01-13,19.0
1965-01-14,20.0
1965-01-15,20.0
1965-01-16,20.0
1965-01-17,20.0
1965-01-18,20.0
1965-01-19,22.0
1965-01-20,22.0
1965-01-21,22.0
1965-01-22,20.0
1965-01-23,20.0
1965-01-24,21.0
1965-01-25,20.0
1965-01-26,19.0
1965-01-27,18.0
1965-01-28,20.0
1965-01-29,20.0
1965-01-30,19.0
1965-01-31,19.0
1965-02-01,19.0
1965-02-02,19.0
1965-02-03,19.0
1965-02-04,19.0
1965-02-05,20.0
1965-02-06,22.0
1965-02-07,20.0
1965-02-08,20.0
1965-02-09,21.0
1965-02-10,20.0
1965-02-11,20.0
1965-02-12,18.0
1965-02-13,17.0
1965-02-14,18.0
1965-02-15,18.0
1965-02-16,19.0
1965-02-17,18.0
1965-02-18,19.0
1965-02-19,19.0
1965-02-20,20.0
1965-02-21,22.0
1965-02-22,22.0
1965-02-23,22.0
1965-02-24,20.0
1965-02-25,22.0
1965-02-26,22.0
1965-02-27,22.0
1965-02-28,23.0
1965-03-01,22.0
1965-03-02,20.0
1965-03-03,20.0
1965-03-04,20.0
1965-03-05,20.0
1965-03-06,20.0
1965-03-07,20.0
1965-03-08,20.0
1965-03-09,20.0
1965-03-10,20.0
1965-03-11,20.0
1965-03-12,20.0
1965-03-13,20.0
1965-03-14,19.0
1965-03-15,19.0
1965-03-16,20.0
1965-03-17,20.0
1965-03-18,20.0
1965-03-19,19.0
1965-03-20,18.0
1965-03-21,20.0
1965-03-22,20.0
1965-03-23,20.0
1965-03-24,19.0
1965-03-25,19.0
1965-03-26,20.0
1965-03-27,20.0
1965-03-28,21.0
1965-03-29,21.0
1965-03-30,22.0
1965-03-31,26.0
1965-04-01,32.0
1965-04-02,31.0
1965-04-03,29.0
1965-04-04,29.0
1965-04-05,29.0
1965-04-06,29.0
1965-04-07,30.0
1965-04-08,31.0
1965-04-09,31.0
1965-04-10,22.0
1965-04-11,19.0
1965-04-12,32.0
1965-04-13,36.0
1965-04-14,34.0
1965-04-15,35.0
1965-04-16,51.0
1965-04-17,84.0
1965-04-18,117.0
1965-04-19,145.0
1965-04-20,248.0
1965-04-21,382.0
1965-04-22,484.0
1965-04-23,532.0
1965-04-24,538.0
1965-04-25,502.0
1965-04-26,370.0
1965-04-27,270.0
1965-04-28,212.0
1965-04-29,192.0
1965-04-30,232.0
1965-05-01,370.0
1965-05-02,514.0
1965-05-03,538.0
1965-05-04,478.0
1965-05-05,364.0
1965-05-06,285.0
1965-05-07,232.0
1965-05-08,196.0
1965-05-09,166.0
1965-05-10,159.0
1965-05-11,142.0
1965-05-12,152.0
1965-05-13,192.0
1965-05-14,192.0
1965-05-15,204.0
1965-05-16,248.0
1965-05-17,352.0
1965-05-18,478.0
1965-05-19,620.0
1965-05-20,770.0
1965-05-21,877.0
1965-05-22,886.0
1965-05-23,655.0
1965-05-24,478.0
1965-05-25,358.0
1965-05-26,275.0
1965-05-27,232.0
1965-05-28,200.0
1965-05-29,220.0
1965-05-30,300.0
1965-05-31,412.0
1965-06-01,526.0
1965-06-02,532.0
1965-06-03,599.0
1965-06-04,599.0
1965-06-05,544.0
1965-06-06,690.0
1965-06-07,842.0
1965-06-08,895.0
1965-06-09,778.0
1965-06-10,526.0
1965-06-11,436.0
1965-06-12,460.0
1965-06-13,714.0
1965-06-14,950.0
1965-06-15,1020.0
1965-06-16,834.0
1965-06-17,683.0
1965-06-18,794.0
1965-06-19,970.0
1965-06-20,1110.0
1965-06-21,1020.0
1965-06-22,826.0
1965-06-23,810.0
1965-06-24,1020.0
1965-06-25,754.0
1965-06-26,564.0
1965-06-27,550.0
1965-06-28,676.0
1965-06-29,794.0
1965-06-30,754.0
1965-07-01,746.0
1965-07-02,859.0
1965-07-03,810.0
1965-07-04,746.0
1965-07-05,730.0
1965-07-06,714.0
1965-07-07,706.0
1965-07-08,730.0
1965-07-09,641.0
1965-07-10,571.0
1965-07-11,641.0
1965-07-12,778.0
1965-07-13,578.0
1965-07-14,514.0
1965-07-15,520.0
1965-07-16,484.0
1965-07-17,454.0
1965-07-18,514.0
1965-07-19,478.0
1965-07-20,448.0
1965-07-21,448.0
1965-07-22,394.0
1965-07-23,358.0
1965-07-24,376.0
1965-07-25,424.0
1965-07-26,364.0
1965-07-27,322.0
1965-07-28,300.0
1965-07-29,424.0
1965-07-30,454.0
1965-07-31,460.0
1965-08-01,460.0
1965-08-02,460.0
1965-08-03,382.0
1965-08-04,316.0
1965-08-05,270.0
1965-08-06,232.0
1965-08-07,200.0
1965-08-08,184.0
1965-08-09,170.0
1965-08-10,166.0
1965-08-11,162.0
1965-08-12,156.0
1965-08-13,156.0
1965-08-14,152.0
1965-08-15,139.0
1965-08-16,134.0
1965-08-17,152.0
1965-08-18,248.0
1965-08-19,204.0
1965-08-20,159.0
1965-08-21,139.0
1965-08-22,139.0
1965-08-23,125.0
1965-08-24,115.0
1965-08-25,106.0
1965-08-26,99.0
1965-08-27,93.0
1965-08-28,88.0
1965-08-29,126.0
1965-08-30,228.0
1965-08-31,173.0
1965-09-01,134.0
1965-09-02,152.0
1965-09-03,137.0
1965-09-04,125.0
1965-09-05,120.0
1965-09-06,224.0
1965-09-07,188.0
1965-09-08,176.0
1965-09-09,228.0
1965-09-10,188.0
1965-09-11,159.0
1965-09-12,142.0
1965-09-13,128.0
1965-09-14,113.0
1965-09-15,102.0
1965-09-16,91.0
1965-09-17,108.0
1965-09-18,192.0
1965-09-19,236.0
1965-09-20,212.0
1965-09-21,192.0
1965-09-22,184.0
1965-09-23,200.0
1965-09-24,228.0
1965-09-25,248.0
1965-09-26,248.0
1965-09-27,248.0
1965-09-28,240.0
1965-09-29,216.0
1965-09-30,180.0
1965-10-01,164.0
1965-10-02,164.0
1965-10-03,172.0
1965-10-04,172.0
1965-10-05,172.0
1965-10-06,154.0
1965-10-07,148.0
1965-10-08,139.0
1965-10-09,133.0
1965-10-10,128.0
1965-10-11,122.0
1965-10-12,115.0
1965-10-13,108.0
1965-10-14,101.0
1965-10-15,97.0
1965-10-16,112.0
1965-10-17,110.0
1965-10-18,108.0
1965-10-19,103.0
1965-10-20,101.0
1965-10-21,101.0
1965-10-22,103.0
1965-10-23,103.0
1965-10-24,110.0
1965-10-25,112.0
1965-10-26,110.0
1965-10-27,108.0
1965-10-28,101.0
1965-10-29,93.0
1965-10-30,91.0
1965-10-31,85.0
1965-11-01,83.0
1965-11-02,82.0
1965-11-03,76.0
1965-11-04,70.0
1965-11-05,67.0
1965-11-06,64.0
1965-11-07,62.0
1965-11-08,60.0
1965-11-09,60.0
1965-11-10,56.0
1965-11-11,53.0
1965-11-12,52.0
1965-11-13,51.0
1965-11-14,50.0
1965-11-15,49.0
1965-11-16,49.0
1965-11-17,49.0
1965-11-18,46.0
1965-11-19,45.0
1965-11-20,43.0
1965-11-21,44.0
1965-11-22,35.0
1965-11-23,43.0
1965-11-24,46.0
1965-11-25,47.0
1965-11-26,41.0
1965-11-27,40.0
1965-11-28,41.0
1965-11-29,41.0
1965-11-30,44.0
1965-12-01,46.0
1965-12-02,41.0
1965-12-03,42.0
1965-12-04,42.0
1965-12-05,41.0
1965-12-06,40.0
1965-12-07,40.0
1965-12-08,40.0
1965-12-09,40.0
1965-12-10,40.0
1965-12-11,42.0
1965-12-12,40.0
1965-12-13,40.0
1965-12-14,39.0
1965-12-15,39.0
1965-12-16,37.0
1965-12-17,33.0
1965-12-18,35.0
1965-12-19,35.0
1965-12-20,30.0
1965-12-21,32.0
1965-12-22,34.0
1965-12-23,36.0
1965-12-24,34.0
1965-12-25,34.0
1965-12-26,34.0
1965-12-27,34.0
1965-12-28,34.0
1965-12-29,35.0
1965-12-30,31.0
1965-12-31,37.0
1966-01-01,39.0
1966-01-02,30.0
1966-01-03,30.0
1966-01-04,30.0
1966-01-05,32.0
1966-01-06,30.0
1966-01-07,30.0
1966-01-08,30.0
1966-01-09,30.0
1966-01-10,30.0
1966-01-11,30.0
1966-01-12,28.0
1966-01-13,26.0
1966-01-14,28.0
1966-01-15,28.0
1966-01-16,26.0
1966-01-17,26.0
1966-01-18,26.0
1966-01-19,26.0
1966-01-20,26.0
1966-01-21,26.0
1966-01-22,24.0
1966-01-23,26.0
1966-01-24,22.0
1966-01-25,20.0
1966-01-26,22.0
1966-01-27,22.0
1966-01-28,20.0
1966-01-29,22.0
1966-01-30,22.0
1966-01-31,22.0
1966-02-01,20.0
1966-02-02,20.0
1966-02-03,19.0
1966-02-04,20.0
1966-02-05,20.0
1966-02-06,20.0
1966-02-07,20.0
1966-02-08,20.0
1966-02-09,20.0
1966-02-10,20.0
1966-02-11,20.0
1966-02-12,22.0
1966-02-13,20.0
1966-02-14,19.0
1966-02-15,20.0
1966-02-16,18.0
1966-02-17,20.0
1966-02-18,20.0
1966-02-19,21.0
1966-02-20,21.0
1966-02-21,21.0
1966-02-22,21.0
1966-02-23,21.0
1966-02-24,21.0
1966-02-25,21.0
1966-02-26,22.0
1966-02-27,22.0
1966-02-28,20.0
1966-03-01,20.0
1966-03-02,19.0
1966-03-03,18.0
1966-03-04,17.0
1966-03-05,18.0
1966-03-06,20.0
1966-03-07,22.0
1966-03-08,21.0
1966-03-09,22.0
1966-03-10,23.0
1966-03-11,24.0
1966-03-12,25.0
1966-03-13,29.0
1966-03-14,30.0
1966-03-15,35.0
1966-03-16,40.0
1966-03-17,40.0
1966-03-18,39.0
1966-03-19,40.0
1966-03-20,43.0
1966-03-21,43.0
1966-03-22,40.0
1966-03-23,36.0
1966-03-24,36.0
1966-03-25,41.0
1966-03-26,43.0
1966-03-27,52.0
1966-03-28,65.0
1966-03-29,82.0
1966-03-30,95.0
1966-03-31,122.0
1966-04-01,154.0
1966-04-02,180.0
1966-04-03,172.0
1966-04-04,142.0
1966-04-05,122.0
1966-04-06,110.0
1966-04-07,112.0
1966-04-08,120.0
1966-04-09,125.0
1966-04-10,136.0
1966-04-11,130.0
1966-04-12,120.0
1966-04-13,110.0
1966-04-14,108.0
1966-04-15,120.0
1966-04-16,154.0
1966-04-17,184.0
1966-04-18,180.0
1966-04-19,157.0
1966-04-20,136.0
1966-04-21,120.0
1966-04-22,120.0
1966-04-23,110.0
1966-04-24,115.0
1966-04-25,130.0
1966-04-26,168.0
1966-04-27,196.0
1966-04-28,208.0
1966-04-29,212.0
1966-04-30,240.0
1966-05-01,270.0
1966-05-02,338.0
1966-05-03,398.0
1966-05-04,466.0
1966-05-05,592.0
1966-05-06,704.0
1966-05-07,792.0
1966-05-08,784.0
1966-05-09,704.0
1966-05-10,576.0
1966-05-11,392.0
1966-05-12,296.0
1966-05-13,236.0
1966-05-14,208.0
1966-05-15,208.0
1966-05-16,280.0
1966-05-17,338.0
1966-05-18,480.0
1966-05-19,576.0
1966-05-20,648.0
1966-05-21,624.0
1966-05-22,568.0
1966-05-23,632.0
1966-05-24,672.0
1966-05-25,640.0
1966-05-26,552.0
1966-05-27,459.0
1966-05-28,417.0
1966-05-29,576.0
1966-05-30,704.0
1966-05-31,768.0
1966-06-01,608.0
1966-06-02,610.0
1966-06-03,620.0
1966-06-04,608.0
1966-06-05,584.0
1966-06-06,528.0
1966-06-07,459.0
1966-06-08,410.0
1966-06-09,417.0
1966-06-10,424.0
1966-06-11,392.0
1966-06-12,459.0
1966-06-13,520.0
1966-06-14,528.0
1966-06-15,459.0
1966-06-16,392.0
1966-06-17,392.0
1966-06-18,392.0
1966-06-19,392.0
1966-06-20,431.0
1966-06-21,386.0
1966-06-22,424.0
1966-06-23,392.0
1966-06-24,350.0
1966-06-25,314.0
1966-06-26,296.0
1966-06-27,260.0
1966-06-28,224.0
1966-06-29,250.0
1966-06-30,356.0
1966-07-01,350.0
1966-07-02,275.0
1966-07-03,245.0
1966-07-04,228.0
1966-07-05,224.0
1966-07-06,196.0
1966-07-07,176.0
1966-07-08,172.0
1966-07-09,164.0
1966-07-10,160.0
1966-07-11,184.0
1966-07-12,160.0
1966-07-13,160.0
1966-07-14,160.0
1966-07-15,148.0
1966-07-16,160.0
1966-07-17,188.0
1966-07-18,172.0
1966-07-19,157.0
1966-07-20,201.0
1966-07-21,232.0
1966-07-22,188.0
1966-07-23,154.0
1966-07-24,145.0
1966-07-25,130.0
1966-07-26,122.0
1966-07-27,122.0
1966-07-28,125.0
1966-07-29,136.0
1966-07-30,210.0
1966-07-31,240.0
1966-08-01,172.0
1966-08-02,288.0
1966-08-03,326.0
1966-08-04,208.0
1966-08-05,157.0
1966-08-06,130.0
1966-08-07,112.0
1966-08-08,99.0
1966-08-09,91.0
1966-08-10,82.0
1966-08-11,75.0
1966-08-12,73.0
1966-08-13,76.0
1966-08-14,70.0
1966-08-15,68.0
1966-08-16,65.0
1966-08-17,64.0
1966-08-18,63.0
1966-08-19,63.0
1966-08-20,78.0
1966-08-21,75.0
1966-08-22,64.0
1966-08-23,102.0
1966-08-24,89.0
1966-08-25,73.0
1966-08-26,68.0
1966-08-27,63.0
1966-08-28,60.0
1966-08-29,58.0
1966-08-30,53.0
1966-08-31,76.0
1966-09-01,68.0
1966-09-02,62.0
1966-09-03,60.0
1966-09-04,54.0
1966-09-05,52.0
1966-09-06,53.0
1966-09-07,51.0
1966-09-08,45.0
1966-09-09,42.0
1966-09-10,42.0
1966-09-11,51.0
1966-09-12,88.0
1966-09-13,82.0
1966-09-14,77.0
1966-09-15,220.0
1966-09-16,134.0
1966-09-17,104.0
1966-09-18,90.0
1966-09-19,79.0
1966-09-20,74.0
1966-09-21,69.0
1966-09-22,61.0
1966-09-23,58.0
1966-09-24,57.0
1966-09-25,53.0
1966-09-26,50.0
1966-09-27,50.0
1966-09-28,51.0
1966-09-29,45.0
1966-09-30,43.0
1966-10-01,40.0
1966-10-02,46.0
1966-10-03,63.0